Dewpoint
15 16 15 14 13 12 11 11 11 10 10 9 9 8 7 7 7 7 7 7 7 7 8 9 9 9 10 12 12 12 12 12 13 13 14 14 14 14 13 13 12 11
15 15 15 15 14 12 12 11 11 11 10 10 9 8 7 7 7 7 7 7 7 7 8 9 10 9 9 10 12 12 12 12 12 12 13 13 13 13 13 13 13 12
15 15 15 15 14 13 12 11 11 11 11 10 9 9 8 8 7 7 6 7 7 7 8 9 10 9 9 9 10 11 11 11 12 12 12 12 13 13 13 14 13 13
16 15 15 14 14 13 12 12 12 11 11 11 10 9 8 8 8 7 6 6 7 7 7 8 9 9 9 9 9 10 10 11 11 12 12 12 12 13 13 14 14 13
16 15 15 14 14 13 13 12 11 11 11 11 10 9 9 9 9 7 6 6 7 7 7 7 8 8 9 9 9 9 9 10 10 11 12 11 12 12 12 13 14 14
15 15 15 14 14 14 14 12 11 10 10 10 10 9 8 8 9 8 6 5 6 6 7 7 7 8 9 9 9 9 10 9 10 10 11 10 11 11 11 12 13 13
15 15 15 14 14 14 13 12 11 10 9 9 10 9 8 8 8 7 5 5 6 6 6 6 6 7 8 9 9 10 10 10 10 10 10 10 10 10 10 11 11 12
15 14 14 14 14 14 13 12 11 10 10 10 10 9 8 7 6 6 5 4 5 6 6 5 5 5 6 7 8 8 9 9 9 9 9 9 9 10 10 10 10 11
14 14 14 14 14 14 13 12 10 10 10 10 9 8 7 7 5 5 5 4 4 5 6 6 5 5 5 6 6 7 7 7 7 7 7 8 8 8 8 8 9 9
15 14 14 14 14 14 13 11 10 10 10 9 8 7 6 6 5 5 5 5 5 5 5 5 6 5 5 5 6 6 6 6 6 6 6 6 6 6 6 7 7 8
15 15 15 15 15 14 13 12 11 10 9 7 6 6 5 4 4 5 5 5 4 4 4 5 5 5 4 4 4 5 5 5 5 5 6 5 5 5 6 6 6 6
15 15 15 15 15 14 14 13 12 11 9 7 6 5 5 5 4 4 4 3 3 3 3 4 4 5 4 4 4 4 4 5 4 5 5 5 6 6 6 6 6 6
15 15 15 15 15 15 14 13 13 11 9 7 6 5 5 5 4 4 4 3 3 3 3 3 4 4 4 4 4 4 4 4 5 5 5 5 6 6 6 6 6 6
15 15 15 15 15 15 14 14 13 13 11 9 7 6 5 4 4 4 3 3 3 3 2 3 4 4 4 4 4 4 4 4 4 5 5 5 5 6 6 7 6 6
15 15 16 15 15 15 15 14 14 14 13 11 9 7 5 4 4 4 3 3 3 3 3 3 3 3 3 3 3 3 3 4 4 4 5 5 5 5 6 6 6 6
15 16 16 16 16 15 15 15 15 15 14 13 12 10 7 6 5 5 4 4 4 3 3 3 3 2 3 3 3 3 4 4 4 4 5 5 6 6 6 6 6 6
16 16 16 16 16 16 16 15 15 15 15 14 13 12 9 7 6 6 5 5 4 4 4 4 3 3 2 2 3 3 4 4 4 4 5 6 7 7 7 6 7 7
16 16 16 16 16 16 16 16 16 16 15 15 14 13 11 9 8 7 6 5 6 5 4 4 4 3 3 3 3 4 4 5 5 6 7 7 8 8 8 8 9 9
16 16 16 16 17 17 17 17 16 16 16 16 15 14 13 12 10 8 7 6 7 6 6 5 4 4 4 4 4 4 4 5 6 8 9 9 10 10 10 10 10 11
16 16 16 17 17 17 17 17 17 17 16 16 16 15 14 13 12 10 8 7 7 7 7 7 6 5 5 5 4 4 5 7 8 9 10 11 11 11 11 12 12 12
16 17 17 17 17 17 17 17 17 17 17 17 17 16 16 15 14 12 10 8 7 7 8 7 6 5 5 5 5 6 6 9 10 11 11 12 12 12 12 13 13 14
17 17 17 17 17 17 17 17 17 18 17 17 17 17 17 16 16 14 12 10 9 8 9 8 6 5 6 6 6 7 9 10 11 12 12 12 12 12 13 13 14 14
16 17 17 17 17 17 17 17 18 18 18 18 18 18 17 17 16 15 14 12 11 9 9 8 6 5 7 7 8 9 11 12 12 12 13 12 12 13 13 14 14 14
16 16 17 17 17 17 18 18 18 18 18 18 18 18 18 17 17 16 16 14 13 11 10 10 8 7 7 8 9 10 11 12 12 13 13 13 13 13 14 14 14 15
16 16 17 17 17 17 18 18 18 18 18 18 18 18 17 17 17 17 16 16 15 14 13 13 12 11 11 11 10 11 12 12 13 14 14 14 14 14 14 14 15 15
16 16 17 17 17 17 17 17 17 18 18 17 18 18 18 18 18 17 17 17 16 16 15 15 14 14 14 13 13 13 13 13 14 14 14 14 15 15 15 15 15 16
Wind_Speed
42 41 41 40 40 39 37 35 34 34 33 32 31 28 26 23 22 21 20 21 22 21 20 20 20 19 18 18 19 19 18 18 17 16 15 16 15 14 15 15 16 17
44 43 41 40 40 40 39 37 35 34 34 33 32 30 27 25 23 22 21 21 22 22 21 20 20 20 20 19 20 20 20 19 18 17 17 17 16 15 15 16 16 17
46 44 43 42 40 40 39 38 37 36 35 34 33 31 29 26 23 21 21 21 22 23 22 21 21 21 21 21 21 21 21 20 19 18 18 18 17 16 16 16 16 17
47 46 44 43 41 40 39 39 38 37 36 35 34 33 31 28 25 22 21 20 22 22 22 22 22 22 22 22 23 23 22 22 20 19 19 19 18 18 17 16 17 18
47 46 45 43 42 41 40 39 39 37 37 36 35 35 33 30 27 24 22 21 21 22 22 22 22 22 23 23 23 24 24 23 22 21 21 21 20 19 18 17 18 18
46 46 45 44 42 42 41 40 38 37 37 36 36 36 34 32 29 26 24 23 22 23 23 22 22 22 23 23 24 24 24 24 24 23 24 23 21 20 19 19 19 20
45 45 44 43 42 42 41 40 39 37 36 36 36 36 35 34 31 29 26 25 24 25 24 24 23 23 23 23 24 25 25 25 25 25 25 24 23 23 22 21 21 21
44 43 43 43 42 42 41 40 40 38 37 36 36 36 36 34 33 30 29 28 27 27 27 26 25 24 24 25 25 26 26 26 26 26 26 25 25 25 23 23 23 23
43 43 43 43 43 42 41 40 39 38 38 37 36 36 36 35 34 32 31 30 29 29 28 28 27 26 26 26 27 27 27 27 27 27 27 27 26 25 24 24 24 24
43 42 43 43 43 43 42 40 39 38 38 37 37 37 37 36 35 35 34 33 32 31 30 30 29 28 27 27 27 28 28 28 27 28 28 28 27 26 25 25 25 25
42 42 43 44 44 44 42 40 39 39 38 37 37 37 37 37 37 36 36 35 34 33 32 32 31 30 29 28 28 28 28 28 28 28 29 29 29 28 27 27 27 26
43 43 43 43 43 43 42 41 41 39 38 37 37 37 37 37 37 37 37 36 35 34 34 34 33 33 32 31 30 30 30 30 29 29 29 30 30 30 30 29 29 28
44 42 41 41 41 41 41 41 41 40 39 37 37 37 37 37 37 37 37 37 36 36 35 35 35 35 34 33 33 32 31 31 31 31 31 30 30 30 30 30 31 31
43 41 40 38 38 39 40 41 42 42 40 38 37 37 37 36 36 36 36 37 37 37 37 37 37 37 37 36 35 34 33 33 32 32 32 31 31 31 30 31 31 32
42 41 40 38 37 38 40 41 42 42 41 40 39 38 36 36 35 36 36 37 38 38 39 39 40 40 39 38 37 36 35 35 34 34 33 33 32 32 31 32 32 32
42 42 41 39 38 38 39 40 41 42 42 42 41 40 37 36 36 36 37 38 38 39 40 40 41 40 39 38 38 37 36 36 36 36 35 35 34 34 34 33 33 33
43 42 41 40 39 38 38 39 40 41 42 42 42 41 39 37 37 37 38 38 38 39 40 41 41 40 39 38 38 38 38 38 38 37 37 37 37 36 36 36 35 35
42 42 41 41 39 38 37 37 38 39 41 41 42 41 39 39 39 38 38 38 39 40 41 42 42 40 39 39 39 38 38 39 39 39 39 39 39 38 38 38 38 38
41 41 41 40 39 38 36 36 37 39 40 40 41 40 39 39 39 39 38 38 39 41 41 42 41 40 40 39 39 38 38 39 40 40 40 40 40 40 40 39 39 39
40 40 39 38 37 36 36 36 37 38 38 39 39 40 40 40 40 39 39 39 40 40 41 42 41 40 39 39 39 39 39 40 41 41 41 41 41 41 40 40 40 40
39 38 38 37 36 35 35 36 35 36 36 37 38 38 39 39 39 39 39 39 39 40 41 42 41 39 39 39 39 39 39 40 41 41 41 41 41 41 41 41 41 41
37 37 37 36 35 35 36 35 34 34 34 34 34 35 36 37 38 38 38 38 38 39 41 42 40 38 38 39 38 38 39 40 41 41 41 41 40 40 40 40 40 40
36 36 36 35 35 36 36 35 33 32 31 31 32 33 33 34 35 35 35 36 36 37 39 40 39 37 38 38 38 38 39 40 40 40 40 40 40 39 38 38 38 38
35 35 35 34 35 35 34 33 32 31 30 30 31 31 30 30 30 31 32 32 33 34 36 38 38 36 36 37 37 37 38 39 39 39 39 40 40 39 38 38 38 37
35 35 35 34 34 34 33 32 31 30 29 29 30 31 30 30 30 31 31 31 31 32 32 34 35 34 34 35 35 35 36 37 37 38 40 40 40 39 38 38 38 38
36 36 36 35 34 33 32 31 30 30 30 31 31 31 31 32 32 33 33 31 31 30 30 32 32 32 31 32 32 33 33 34 36 38 39 39 38 38 38 38 38 38
Wind_Direction
227 228 230 231 231 231 231 231 230 231 232 234 234 235 236 236 237 239 237 234 232 231 232 235 239 240 239 237 236 238 240 242 243 244 243 244 242 241 243 246 248 249
227 228 230 232 232 232 232 232 232 232 233 235 237 238 238 238 239 239 238 234 231 231 231 232 236 239 239 238 237 238 240 242 243 243 243 244 243 242 243 246 249 252
227 229 230 231 232 231 232 233 233 233 234 236 238 239 239 239 238 239 239 235 232 232 231 230 233 236 238 238 238 239 241 242 243 244 245 246 245 243 243 245 249 252
227 229 231 231 232 232 233 234 234 234 234 235 238 239 239 239 237 237 239 237 234 233 232 231 232 234 237 238 238 239 241 243 245 245 246 246 246 246 244 244 247 251
228 230 231 232 233 234 235 235 235 235 235 236 237 238 239 239 237 236 238 239 238 236 233 232 232 233 236 237 238 240 241 243 245 246 247 247 246 247 247 246 248 249
229 230 232 233 233 235 236 236 235 235 235 236 237 237 238 239 238 237 239 240 241 239 234 231 232 232 234 237 239 241 242 244 246 247 249 251 250 249 248 248 249 249
231 232 232 233 234 235 236 236 236 235 235 236 238 238 238 239 239 238 239 241 242 242 239 235 235 235 236 239 241 243 244 246 248 249 250 253 254 254 252 250 250 250
232 233 233 234 234 235 236 236 236 235 236 237 238 239 239 240 240 240 241 242 243 244 243 241 240 240 240 241 242 244 245 247 250 251 252 254 255 256 256 255 254 253
232 233 234 234 234 235 236 235 235 235 236 238 238 238 240 241 241 241 242 243 243 245 246 245 243 242 242 243 244 245 246 248 250 252 253 254 255 257 258 259 259 258
232 233 234 234 235 236 236 235 235 236 236 237 237 238 239 240 241 242 243 243 244 245 247 246 245 244 245 245 245 246 247 249 251 252 254 254 254 256 258 259 261 261
231 233 234 234 235 236 237 236 236 237 237 237 236 237 237 238 240 242 243 243 244 245 246 247 247 248 250 249 249 249 250 252 253 253 254 254 254 256 257 258 260 262
230 231 233 235 236 238 238 238 237 237 238 237 237 237 237 238 239 241 242 243 244 246 247 248 249 251 253 253 253 253 254 254 255 255 254 255 255 256 257 258 259 261
229 231 233 235 238 240 240 239 238 238 238 238 238 238 238 239 240 241 242 243 245 247 248 249 251 253 254 255 256 256 257 256 256 256 256 256 257 257 258 258 259 261
230 231 233 236 239 241 240 240 239 239 239 239 239 240 240 240 241 242 243 244 245 247 248 250 252 254 255 256 257 258 258 258 258 258 258 258 259 259 259 260 260 261
231 231 233 235 238 241 241 240 240 240 239 240 240 240 241 241 242 243 244 245 247 247 249 251 252 254 255 256 258 258 259 260 261 261 261 261 261 262 262 261 261 261
231 231 233 234 237 240 242 241 241 241 241 241 241 241 241 242 242 243 244 246 247 248 250 251 252 254 255 256 258 259 260 262 263 263 264 264 265 265 265 264 264 264
230 231 232 234 237 240 242 242 242 242 242 242 242 242 242 242 243 244 245 245 247 248 250 251 252 253 255 257 259 260 261 263 264 265 266 266 267 267 268 268 269 269
231 233 233 235 237 239 241 243 243 243 243 243 243 243 243 244 243 244 245 245 247 248 249 251 252 253 255 257 259 261 262 263 264 266 267 267 268 269 271 273 274 274
232 234 235 236 238 239 241 243 243 244 244 244 245 245 245 245 245 246 246 246 247 249 249 251 252 253 255 256 259 261 262 264 265 265 267 268 269 271 273 275 276 277
234 235 237 238 240 240 241 243 243 245 246 246 246 246 246 247 247 247 247 248 248 250 251 252 253 254 255 257 259 261 263 264 265 266 267 268 270 271 273 274 276 277
234 235 237 239 240 240 241 242 243 245 246 246 247 247 248 249 249 250 250 250 250 251 253 254 254 254 256 257 259 261 263 265 266 267 267 269 270 271 272 274 275 276
234 236 237 239 239 239 240 241 242 244 245 246 247 248 250 250 251 251 251 252 253 254 254 255 255 255 257 258 260 262 264 265 266 267 269 269 271 272 272 274 275 276
236 237 238 239 239 239 240 241 242 244 245 246 246 247 249 250 250 252 253 253 255 255 256 257 257 258 259 260 262 263 264 266 267 268 270 271 272 273 273 274 275 276
239 239 240 241 240 240 242 243 244 245 245 246 247 248 250 251 253 254 255 256 256 256 258 260 261 262 263 263 265 266 266 267 268 270 271 272 273 274 275 276 277 277
242 242 242 243 243 243 245 246 247 248 248 249 249 251 253 254 254 255 255 256 257 258 260 262 263 265 266 266 268 267 268 269 269 270 271 272 274 276 277 279 280 281
244 245 245 245 246 247 249 249 250 250 250 251 251 253 254 254 254 255 255 256 258 260 261 263 264 266 267 268 269 269 269 270 269 270 272 273 276 278 279 281 282 283
Height
1537 1539 1542 1544 1546 1548 1551 1553 1555 1557 1558 1560 1562 1564 1565 1567 1569 1571 1572 1573 1574 1575 1577 1578 1579 1580 1581 1582 1582 1582 1582 1583 1583 1584 1585 1585 1586 1586 1587 1587 1588 1589
1534 1536 1539 1541 1543 1546 1548 1550 1553 1555 1556 1558 1560 1562 1564 1566 1568 1569 1570 1572 1573 1574 1575 1576 1577 1578 1579 1580 1581 1581 1581 1582 1582 1583 1583 1584 1585 1585 1585 1586 1587 1588
1531 1533 1536 1538 1541 1543 1545 1548 1550 1552 1555 1556 1558 1560 1562 1564 1566 1567 1569 1570 1571 1572 1574 1575 1576 1577 1578 1578 1579 1579 1580 1580 1581 1582 1582 1582 1583 1584 1584 1585 1586 1586
1528 1530 1533 1536 1538 1541 1543 1545 1548 1550 1552 1554 1556 1558 1560 1562 1564 1566 1567 1568 1569 1571 1572 1573 1574 1575 1576 1577 1577 1578 1578 1578 1579 1580 1581 1581 1582 1582 1583 1584 1584 1585
1525 1528 1531 1534 1536 1538 1541 1542 1545 1547 1549 1551 1553 1556 1558 1560 1562 1564 1565 1566 1568 1569 1570 1571 1572 1573 1574 1575 1575 1576 1576 1577 1578 1578 1579 1579 1580 1581 1582 1583 1583 1584
1523 1526 1528 1531 1533 1536 1538 1539 1542 1544 1546 1549 1551 1553 1555 1557 1559 1561 1563 1564 1566 1567 1568 1569 1570 1571 1572 1572 1573 1574 1574 1575 1576 1577 1577 1577 1578 1579 1580 1581 1581 1582
1520 1523 1526 1528 1531 1533 1535 1537 1540 1542 1544 1546 1548 1550 1552 1555 1557 1559 1560 1562 1563 1565 1566 1567 1568 1569 1570 1570 1571 1571 1572 1573 1574 1575 1575 1575 1576 1577 1578 1579 1580 1580
1517 1520 1523 1526 1528 1530 1532 1534 1537 1539 1541 1543 1545 1548 1550 1552 1554 1556 1558 1560 1561 1562 1563 1565 1566 1567 1568 1568 1569 1569 1570 1571 1572 1572 1573 1573 1574 1575 1576 1577 1578 1578
1515 1517 1520 1522 1525 1527 1529 1531 1533 1536 1539 1541 1543 1545 1547 1549 1551 1553 1555 1557 1558 1559 1561 1562 1563 1564 1565 1566 1566 1567 1568 1569 1570 1570 1571 1572 1572 1573 1574 1575 1576 1576
1512 1514 1517 1519 1521 1524 1526 1528 1531 1533 1535 1538 1540 1542 1544 1546 1548 1550 1552 1554 1555 1556 1557 1559 1560 1561 1562 1563 1564 1565 1566 1566 1567 1568 1569 1569 1570 1571 1572 1573 1573 1574
1508 1511 1513 1516 1518 1521 1523 1526 1528 1530 1532 1535 1537 1539 1541 1543 1545 1547 1548 1550 1551 1553 1554 1556 1557 1558 1559 1560 1561 1562 1563 1564 1565 1566 1566 1567 1568 1569 1570 1571 1571 1572
1505 1507 1510 1513 1515 1518 1520 1523 1525 1527 1529 1531 1533 1536 1538 1540 1542 1543 1545 1546 1548 1549 1551 1552 1553 1555 1556 1557 1559 1560 1561 1562 1563 1563 1564 1564 1565 1566 1567 1568 1569 1569
1501 1504 1507 1510 1513 1515 1518 1520 1522 1524 1526 1528 1530 1533 1535 1537 1539 1540 1542 1543 1545 1546 1547 1549 1550 1552 1553 1554 1555 1557 1558 1559 1560 1560 1561 1562 1562 1563 1564 1565 1566 1567
1498 1502 1504 1507 1510 1512 1515 1517 1519 1521 1523 1525 1527 1529 1531 1533 1535 1537 1539 1540 1541 1543 1544 1545 1547 1548 1549 1550 1552 1553 1554 1555 1556 1557 1558 1559 1560 1561 1562 1562 1563 1563
1496 1499 1501 1504 1507 1509 1511 1513 1515 1518 1520 1522 1524 1526 1528 1530 1532 1534 1535 1537 1538 1539 1541 1542 1543 1544 1545 1547 1548 1549 1551 1552 1553 1554 1555 1556 1556 1557 1559 1559 1560 1560
1493 1496 1498 1501 1503 1505 1508 1510 1512 1515 1517 1519 1520 1522 1524 1526 1528 1530 1531 1533 1534 1535 1537 1538 1539 1540 1541 1543 1544 1546 1547 1548 1549 1550 1551 1552 1553 1554 1555 1555 1556 1556
1490 1493 1495 1498 1500 1502 1505 1507 1509 1512 1513 1515 1517 1519 1521 1523 1524 1526 1527 1529 1530 1531 1533 1534 1534 1536 1538 1539 1541 1542 1544 1545 1546 1546 1547 1548 1549 1550 1550 1551 1552 1552
1487 1490 1492 1495 1497 1499 1501 1504 1506 1508 1510 1512 1513 1515 1517 1519 1520 1521 1523 1525 1526 1527 1529 1529 1531 1533 1534 1536 1538 1539 1541 1542 1542 1543 1544 1544 1545 1546 1546 1547 1548 1548
1484 1487 1489 1491 1493 1496 1498 1500 1502 1504 1505 1507 1509 1511 1513 1515 1516 1517 1519 1521 1522 1523 1524 1525 1527 1529 1531 1533 1534 1536 1537 1538 1539 1540 1541 1541 1542 1542 1543 1543 1544 1544
1481 1484 1486 1488 1490 1493 1495 1496 1498 1499 1501 1504 1506 1508 1509 1510 1511 1513 1514 1516 1518 1519 1520 1521 1523 1525 1527 1529 1530 1532 1534 1535 1536 1537 1537 1538 1538 1539 1539 1539 1540 1541
1478 1480 1483 1485 1487 1489 1491 1492 1494 1496 1498 1500 1502 1503 1504 1505 1507 1509 1510 1512 1513 1515 1516 1517 1518 1521 1523 1525 1526 1528 1530 1531 1532 1533 1534 1534 1534 1535 1535 1536 1536 1537
1475 1477 1479 1481 1484 1485 1487 1489 1491 1492 1494 1496 1498 1499 1500 1502 1503 1504 1506 1507 1509 1511 1512 1512 1514 1517 1519 1520 1522 1524 1526 1527 1528 1529 1530 1530 1530 1531 1532 1532 1533 1533
1472 1474 1476 1478 1480 1481 1483 1485 1487 1489 1491 1493 1494 1495 1496 1497 1498 1500 1502 1504 1505 1507 1507 1508 1510 1513 1515 1517 1519 1521 1522 1523 1524 1525 1525 1525 1525 1527 1528 1528 1529 1529
1469 1470 1472 1474 1476 1478 1480 1482 1484 1486 1487 1489 1490 1491 1492 1494 1495 1497 1499 1500 1501 1502 1503 1505 1507 1509 1511 1513 1515 1517 1518 1519 1520 1521 1521 1520 1521 1522 1524 1524 1524 1525
1465 1467 1469 1471 1473 1475 1476 1478 1480 1482 1484 1485 1486 1487 1489 1491 1493 1494 1495 1496 1498 1499 1501 1502 1503 1506 1508 1509 1511 1513 1514 1515 1517 1517 1516 1516 1517 1518 1519 1519 1520 1520
1462 1464 1466 1468 1470 1472 1474 1475 1477 1479 1481 1482 1483 1484 1486 1488 1489 1491 1492 1493 1495 1496 1498 1499 1500 1502 1504 1506 1507 1509 1511 1512 1513 1512 1511 1512 1513 1514 1514 1515 1515 1516